Location: Mount Cooper
(40.7000°S, 175.8667°E)
Time: 03:06:56
(UTC+00:00)

Daily predictions for brighter satellites

Satellite Brightness Start Highest point End
(mag) Time Altitude Azimuth Time Altitude Azimuth Time Altitude Azimuth
Cosmos 1553 Rocket 4.3 05:30:07 10° N 05:36:26 78° W 05:42:42 10° S
SJ-12 4.0 05:35:28 10° SSE 05:39:24 52° E 05:43:16 10° N
Cosmos 158 Rocket 4.5 05:34:55 10° N 05:39:27 38° ENE 05:44:08 10° SE
SL-4 R/B 3.5 05:38:11 10° W 05:41:50 29° SSW 05:45:40 10° SE
H-2A R/B 4.2 05:38:15 10° S 05:42:46 27° WSW 05:47:16 10° WNW
Cosmos 1709 Rocket 4.3 05:41:50 10° S 05:48:04 48° ESE 05:54:09 10° NNE
CZ-2D R/B 3.4 05:44:45 10° SSE 05:48:18 45° E 05:51:46 10° N
Cosmos 1703 3.1 05:45:08 10° S 05:48:54 88° E 05:52:35 10° N
SL-08 R/B 3.7 05:44:36 10° NE 05:49:09 43° ESE 05:53:49 10° S
ATLAS 2AS CENTAUR R/B 3.6 05:43:58 10° WNW 05:50:26 46° SW 05:57:14 10° SSE
Cosmos 2242 Rocket 3.8 05:47:46 10° S 05:52:27 85° W 05:57:02 10° N
Cosmos 2333 Rocket 3.9 05:49:01 10° WNW 05:54:00 30° SW 05:58:59 10° S
NOSS 0 Rocket 4.3 05:49:45 10° N 05:55:38 47° ENE 06:01:33 10° SE
CZ-2D R/B 3.5 05:52:32 10° SSE 05:56:52 72° ENE 06:01:02 10° N
Cosmos 2219 Rocket 3.2 05:52:42 10° NW 05:58:06 46° WSW 06:03:32 10° SSE
Cosmos 1346 Rocket 3.7 05:55:43 10° NNW 05:59:29 51° WSW 06:03:19 10° S
Atlas Centaur 2 4.0 05:57:40 10° NW 05:59:36 13° N 06:01:38 10° NNE
Cosmos 2208 Rocket 4.2 05:55:22 10° N 06:00:42 62° ENE 06:06:08 10° SSE
S3M 4.0 05:55:10 10° N 06:01:21 87° E 06:07:42 10° S
NOSS 3-1 (A) 3.2 05:55:02 10° SSW 06:01:25 82° SE 06:06:32 10° NE
Cosmos 1892 3.0 05:58:22 10° S 06:01:44 37° ESE 06:05:04 10° NNE
PSLV R/B 3.8 06:01:03 10° SSE 06:05:08 46° E 06:09:11 10° N
SL-19 R/B 4.2 06:05:17 10° SSE 06:10:39 89° E 06:16:12 10° NNW
Spot 4 Rocket 4.1 06:06:34 10° SSE 06:11:43 59° ENE 06:16:46 10° N
Cosmos 2237 Rocket 2.6 06:08:40 10° N 06:13:57 43° ENE 06:19:19 10° SE
SMAP 3.4 06:09:40 10° SSE 06:14:13 45° E 06:18:42 10° N
Cosmos 1378 Rocket 3.5 06:13:44 10° S 06:18:11 65° E 06:22:36 10° NNE
Cosmos 1570 Rocket 4.4 06:13:34 10° NNW 06:18:47 68° WSW 06:24:03 10° SSE
Cosmos 1025 Rocket 4.1 06:17:07 10° SSE 06:20:42 24° ESE 06:24:12 10° NE
Cosmos 1455 2.0 06:20:12 10° N 06:23:34 53° E 06:26:59 10° SSE
Cosmos 1174 3.7 06:21:18 10° NW 06:24:40 76° WSW 06:28:30 12° SSE
CZ-2C R/B 4.2 06:25:45 17° ENE 06:25:45 17° ENE 06:27:29 10° NE
BREEZE-M DEB (TANK) 3.3 06:22:08 10° SW 06:25:52 29° S 06:26:43 24° SE
Cosmos 1733 Rocket 3.9 06:23:27 10° NNW 06:27:41 51° W 06:31:58 10° S
USA 229 DEB 3.8 06:23:01 10° SSW 06:29:24 45° SE 06:34:57 11° ENE
USA 229 3.8 06:23:09 10° SSW 06:29:31 45° SE 06:34:58 12° ENE
ATLAS 3B R/B 2.5 06:23:35 10° SW 06:29:51 86° NW 06:36:13 10° NNE
Cosmos 1980 3.7 06:28:29 10° NNW 06:34:07 68° ENE 06:39:41 11° SSE
SKYMED 3 4.5 06:30:21 10° NNE 06:34:29 86° WNW 06:38:43 10° SSW
Cosmos 2315 Rocket 4.2 06:29:11 10° NNW 06:35:23 75° W 06:41:42 10° S
SL-16 R/B 3.6 06:31:52 10° NE 06:35:12 18° ENE 06:35:12 18° ENE
Cosmos 1953 2.2 06:36:16 10° N 06:40:12 89° WNW 06:44:14 10° S
Cosmos 2298 Rocket 4.0 06:35:58 10° SSW 06:41:21 70° ESE 06:46:40 10° NNE
Cosmos 1674 Rocket 3.6 06:38:27 10° S 06:42:53 81° W 06:47:13 10° N
Cosmos 1328 3.6 06:39:58 10° S 06:43:54 64° E 06:47:46 10° NNE
Cosmos 1300 Rocket 4.4 06:40:47 10° NNE 06:44:21 30° E 06:44:21 30° E
COSMOS 2428 4.0 06:44:23 10° NW 06:49:46 40° WSW 06:55:11 10° S
ADEOS Rocket 3.6 06:43:48 10° SSE 06:51:21 59° E 06:59:02 10° N
Cosmos 1125 Rocket 4.5 06:46:31 10° SSW 06:51:39 50° WNW 06:56:45 10° N
Helios 1A 4.5 06:51:07 10° NNW 06:54:56 38° W 06:58:49 10° SSW
Cosmos 1825 3.7 06:56:11 10° SSW 06:59:20 33° W 07:02:27 10° NNW
Cosmos 1818 4.0 06:59:30 10° N 07:04:26 38° ENE 07:04:31 38° ENE
Cosmos 2184 Rocket 4.0 06:59:51 10° S 07:06:15 64° E 07:12:36 10° NNE
Lacrosse 5 rocket 4.1 07:07:10 10° W 07:08:59 13° WNW 07:10:46 10° NNW
USA 59 Rocket 2.2 07:02:40 10° SSW 07:11:55 39° SE 07:14:03 35° ESE
DEBRIS 3.4 07:08:15 10° SW 07:11:59 38° SSW 07:11:59 38° SSW
Cosmos 2369 Rocket 4.3 07:10:37 10° S 07:11:23 12° SSE 07:11:23 12° SSE
Nadezhda 1 Rocket 4.0 07:09:30 10° NNE 07:15:33 56° E 07:20:57 14° SSE
NOAA 6 4.5 07:19:00 44° NE 07:19:00 44° NE 07:23:03 10° N
Cosmos 2278 Rocket 2.7 07:12:48 10° SSW 07:18:28 62° WNW 07:24:03 10° N
Cosmos 1943 Rocket 2.1 07:14:08 10° SSW 07:19:52 86° ESE 07:24:15 18° NNE
SL-4 R/B 4.1 07:18:29 10° SW 07:21:22 19° S 07:21:22 19° S
Cosmos 2074 Rocket 3.9 07:17:26 10° S 07:23:45 89° E 07:30:00 10° N
Meteor 1-31 Rocket 3.4 07:27:29 51° NW 07:27:29 51° NW 07:30:24 10° NNW
Radarsat Rocket 4.5 07:24:29 39° SE 07:26:52 54° ENE 07:34:27 10° N
Cosmos 1782 Rocket 3.8 07:26:28 10° NNW 07:30:55 68° W 07:31:59 49° SSW
Cosmos 2154 Rocket 3.9 07:26:05 10° S 07:32:27 83° E 07:38:48 10° N
USA 267 3.7 07:38:32 43° NE 07:38:32 43° NE 07:44:16 10° NNW
IGS 5A 4.3 07:41:11 48° WNW 07:41:11 48° WNW 07:44:25 10° NNW
Cosmos 2237 Rocket 3.9 07:53:17 10° WNW 07:58:08 29° SW 08:01:29 17° S
SL-16 R/B 3.3 08:13:32 10° NW 08:17:08 39° NW 08:17:08 39° NW
USA 59 Rocket 2.3 08:53:29 10° SW 09:00:33 49° WSW 09:00:33 49° WSW
FALCON 9 R/B 4.3 09:13:12 10° WNW 10:02:00 - E 09:18:06 50° NW
